This demonstration page uses our WeatherBlox Daily Observations layout. Learn more.

38.89511, -77.03637

Hourly Observations for February 14, 2015

Temp ( °F °C ) Dew Point ( °F °C ) Humidity (%) Winds ( mph kmh ) Pressure ( in mb ) Visibility ( mi km ) Precip ( " mm )
12:52 am 00:52 Mostly Cloudy 25 -4 7 -14 46 46 SSE 7 11 30.12 1020 10 16.09344 0 0
1:52 am 01:52 Mostly Cloudy 25 -4 9 -13 50 50 S 8 13 30.09 1019 10 16.09344 0 0
2:52 am 02:52 Partly Cloudy 25 -4 7 -14 46 46 S 10 17 30.06 1018 10 16.09344 0 0
3:52 am 03:52 Cloudy 25 -4 7 -14 46 46 SSW 7 11 30.03 1017 10 16.09344 0 0
4:52 am 04:52 Cloudy 27 -3 7 -14 43 43 SSW 5 7 30.03 1017 10 16.09344 0 0
5:52 am 05:52 Cloudy 27 -3 7 -14 43 43 S 9 15 29.97 1015 10 16.09344 0 0
6:52 am 06:52 Cloudy 27 -3 7 -14 43 43 S 8 13 29.94 1014 10 16.09344 0 0
7:52 am 07:52 Cloudy 28 -2 9 -13 43 43 S 9 15 29.94 1014 10 16.09344 0 0
8:52 am 08:52 Cloudy 30 -1 9 -13 40 40 S 8 13 29.91 1013 10 16.09344 0 0
9:52 am 09:52 Cloudy 30 -1 9 -13 40 40 SSW 12 19 29.85 1011 10 16.09344 0 0
10:52 am 10:52 Cloudy 34 1 9 -13 35 35 S 10 17 29.8 1009 10 16.09344 0 0
11:52 am 11:52 Cloudy 34 1 9 -13 35 35 S 9 15 29.74 1007 10 16.09344 0 0
12:52 pm 12:52 Cloudy 36 2 10 -12 35 35 SSW 16 26 29.68 1005 10 16.09344 0 0
1:52 pm 13:52 Mostly Cloudy 41 5 10 -12 28 28 S 20 31 29.59 1002 10 16.09344 0 0
2:52 pm 14:52 Cloudy 45 7 12 -11 27 27 S 17 28 29.53 1000 10 16.09344 0 0
3:52 pm 15:52 Cloudy 45 7 14 -10 29 29 SSW 18 30 29.53 1000 10 16.09344 0 0
4:52 pm 16:52 Cloudy 45 7 16 -9 31 31 SSW 13 20 29.47 998 10 16.09344 0 0
5:52 pm 17:52 Cloudy 41 5 23 -5 49 49 Calm 29.47 998 10 16.09344 0 0
6:52 pm 18:52 Cloudy 39 4 28 -2 65 65 NNW 18 30 29.53 1000 7 11.265408 0 0
7:09 pm 19:09 Cloudy with Snow 37 3 28 -2 70 70 WNW 26 43 29.53 1000 0.25 0.402336 0.001 0.001
7:14 pm 19:14 Cloudy with Snow 34 1 27 -3 75 75 WNW 30 48 29.56 1001 0.25 0.402336 0 0
7:18 pm 19:18 Cloudy with Snow 32 0 27 -3 80 80 WNW 28 44 29.56 1001 0.25 0.402336 0 0
7:26 pm 19:26 Windy with Snow Likely 32 0 27 -3 80 80 WNW 21 33 29.56 1001 0.5 0.804672 0 0
7:33 pm 19:33 Mostly Cloudy with Scattered Snow Showers 32 0 27 -3 80 80 NW 25 41 29.56 1001 1 1.609344 0.001 0.001
7:52 pm 19:52 Windy with Snow Likely 32 0 25 -4 75 75 NW 26 43 29.59 1002 2 3.218688 0.001 0.001
7:59 pm 19:59 Windy with Snow Likely 32 0 25 -4 75 75 NW 23 37 29.59 1002 3 4.828032 0.001 0.001
8:08 pm 20:08 Mostly Cloudy 34 1 21 -6 60 60 NW 26 43 29.59 1002 8 12.874752 0 0
8:13 pm 20:13 Mostly Cloudy 34 1 19 -7 56 56 WNW 20 31 29.62 1003 9 14.484096 0.001 0.001
8:25 pm 20:25 Mostly Cloudy 32 0 16 -9 51 51 WNW 24 39 29.65 1004 10 16.09344 0.001 0.001
8:52 pm 20:52 Mostly Cloudy 30 -1 12 -11 47 47 NW 23 37 29.65 1004 10 16.09344 0.001 0.001
9:52 pm 21:52 Mostly Cloudy 23 -5 7 -14 50 50 NW 22 35 29.77 1008 10 16.09344 0 0
10:52 pm 22:52 Mostly Clear 19 -7 0 -18 42 42 NW 26 43 29.83 1010 10 16.09344 0 0
11:52 pm 23:52 Mostly Clear 18 -8 -6 -21 35 35 NW 21 33 29.85 1011 10 16.09344 0 0

Powered by AerisWeather